Torna al catalogo

STARLINK-35204

AttivoComunicazioniVLEO
NORAD 65694·PAYLOAD·🇺🇸 United States

Lanciato Sep 21, 2025 da Cape Canaveral Space Force Station

Loading…

Prossimi Passaggi (prossime 24 ore)

TLE

AggiornatoSource: CelesTrak SupGP

Epoca: Sep 14, 2026, 21:42 UTC

1 65694C 25212U   26257.90465278 -.00010196  00000+0 -30115-3 0  2573
2 65694  53.1574 183.7902 0001246  94.2351 333.1882 15.34404294    19

Traccia STARLINK-35204 in tempo reale con AllMySat

Download on the App Store